This is the latest recevied weather packets stored in our database for station/object KC5TIL-3. If no packets are shown the sender has not sent any weather packets the latest 10 day(s).
| Time | Temp. | Humidity | Pressure | Rain* | Wind** | Luminosity | Snow |
|---|---|---|---|---|---|---|---|
| 1777446368 | 20.56° C | 63% | 1009.8 hPa | 0 mm | 3.13 m/s, 18° | - | - |
| 1777445465 | 21.11° C | 65% | 1010.8 hPa | 0 mm | 3.13 m/s, 39° | - | - |
| 1777445167 | 21.11° C | 66% | 1010.8 hPa | 0 mm | 2.68 m/s, 339° | - | - |
| 1777444868 | 21.67° C | 67% | 1010.8 hPa | 0 mm | 2.68 m/s, 29° | - | - |
| 1777444567 | 21.67° C | 68% | 1010.8 hPa | 0 mm | 3.13 m/s, 351° | - | - |
| 1777443971 | 22.22° C | 70% | 1010.8 hPa | 0 mm | 2.24 m/s, 16° | - | - |
| 1777443670 | 22.22° C | 70% | 1010.8 hPa | 0 mm | 3.13 m/s, 52° | - | - |
| 1777443371 | 22.22° C | 73% | 1010.8 hPa | 0 mm | 3.58 m/s, 34° | - | - |
| 1777443073 | 22.78° C | 75% | 1010.8 hPa | 0 mm | 2.68 m/s, 44° | - | - |
| 1777442474 | 23.33° C | 76% | 1010.8 hPa | 0 mm | 2.24 m/s, 47° | - | - |
| 1777442176 | 23.33° C | 76% | 1010.8 hPa | 0 mm | 1.79 m/s, 18° | - | - |
| 1777441576 | 23.33° C | 75% | 1010.8 hPa | 0 mm | 2.24 m/s, 48° | - | - |
| 1777441278 | 23.33° C | 75% | 1010.8 hPa | 0 mm | 4.02 m/s, 17° | - | - |
| 1777440679 | 23.33° C | 76% | 1010.8 hPa | 0 mm | 2.68 m/s, 34° | - | - |
| 1777440381 | 23.33° C | 76% | 1010.8 hPa | 0 mm | 2.68 m/s, 16° | - | - |
| 1777440079 | 23.33° C | 75% | 1009.8 hPa | 0 mm | 4.02 m/s, 9° | - | - |
| 1777439781 | 23.33° C | 74% | 1009.8 hPa | 0 mm | 3.13 m/s, 17° | - | - |
| 1777439483 | 23.33° C | 74% | 1009.8 hPa | 0 mm | 3.13 m/s, 351° | - | - |
| 1777438884 | 23.33° C | 74% | 1010.8 hPa | 0 mm | 2.68 m/s, 10° | - | - |
| 1777438586 | 23.33° C | 75% | 1010.8 hPa | 0 mm | 2.68 m/s, 10° | - | - |
| 1777438284 | 23.89° C | 76% | 1010.8 hPa | 0 mm | 1.79 m/s, 18° | - | - |
| 1777437985 | 23.89° C | 78% | 1010.8 hPa | 0 mm | 1.79 m/s, 339° | - | - |
| 1777437688 | 24.44° C | 79% | 1010.8 hPa | 0 mm | 0 m/s | - | - |
| 1777437088 | 24.44° C | 80% | 1009.8 hPa | 0 mm | 0 m/s | - | - |
| 1777436790 | 24.44° C | 80% | 1009.8 hPa | 0 mm | 0 m/s | - | - |
* Rain latest hour (hover to see other rain measurements)
** Current wind speed in m/s (hover to see current wind gust speed)